STARLINK-5730, 55611

Orbit data source: Space-Track

STARLINK-5730, 55611 is a payload satellite owned by SpaceX/Seattle (US) in LEO that was launched on Sun, 12 Feb 2023 UTC via an FALCON 9 launch vehicle from the Air Force Eastern Test Range (AFETR). Payload-class satellites include a variety of spacecraft equipped with specific instruments for various scientific and technological missions. These include communications satellites like Starlink; space stations such as the ISS; scientific satellites like the Hubble; Earth observation satellites from companies like Planet Labs, Umbra, and HawkEye 360; GPS; miniature CubeSats for education and research; and military/defense satellites.

Loading next visibility...
Identifier
55611, 2023-020AU
Orbit
LEO
Country
Flag of USUS
Related business
Manufacturer
SpaceX/Seattle
Mission
Operational Commercial Communications
Bus & Motor
STARLINK, Unknown motor
Mass
305 kg wet, ~290 kg dry
Launch date (UTC)
2023-02-12 (3 years ago)
Launch vehicle
FALCON 9
Launch site
Air Force Eastern Test Range (AFETR)
Object type
Payload
Rocket body
Debris
Shape & HBR
Box + 1 Pan, 10.1 m
Radar Cross Section
13.562 m², Large (>1 m²)

Expand to show TLE details & history
Last TLE update: 13 hours ago

TLE from 13 hours ago
0 STARLINK-5730
1 55611U 23020AU  26061.93960741  .00000236  00000-0  32533-4 0  9990
2 55611  43.0055  28.3673 0001125 271.6018  88.4695 15.02526706168054
Epoch: 2026-03-02T22:33Z
TLE epoch observation values (Epoch: 2026-03-02T22:33:02.080Z)
Latitude
-0.00004°
Longitude
-110.61724°
Altitude
558.866 km
Speed
7.584 km/s
True Right ascension
01h 53m 28s
True Declination
0° 00' 00"
Sunlit
Object was in daylight at epoch
Visualization orbit readout
Latitude
Unknown
Longitude
Unknown
Altitude
Unknown
Speed
Unknown
Apparent Right ascension
Unknown
Apparent Declination
Unknown
Sunlit
N/A
Visualization observer readout
Local Sidereal Time
14:48:16
Azimuth
Unknown
Elevation
Unknown
Doppler factor
Unknown
Orbital elements
Apogee altitude
561.812 km
Perigee altitude
560.251 km
Semi-major axis
6,939.168 km
Eccentricity
0.00011
Inclination
43.0055°
RAAN
28.3673°
Arg. of periapsis
271.6018°
True anomaly
88.48239°
Mean anomaly
88.4695°
Eccentric anomaly
88.47594°
Mean motion
3.75476 °/min
Orbital period
95.88 mins
BSTAR
0.000032533
Loading maneuver chart data...
Computing Atmospheric mass density...

Documentation

Showing up to 5 results
|